Etusivu
METAR-TAF:

METAR-TAF

Lentoasemat :

Sierra Blanca Regional Airport

Ruidoso, New Mexico, Yhdysvallat

Leveyspiiri: 33-28N, Pituuspiiri: 105-32W, korkeus merenpinnasta: 2076 m

Tämänhetkinen sää

Tämä raportti tehtiin 23 minuuttia sitten, kello 09.35 UTC
tyyntä
Lämpötila 16°C
Kosteus 63%
Ilmanpaine 1028 hPa
Näkyvyys: 16.1 km
Hajanaisia pilviä 11000 ft:n korkeudessa

METAR: KSRR 150935Z AUTO 00000KT 10SM SCT110 16/09 A3037 RMK AO2

Aika: 03:58 (09:58 UTC)


TAF: puuttuu

Säähavainnot ja -ennusteet yli 4000 lentoasemalta (METAR- ja TAF-raportit).

Käytössä olevat sääasemat on merkitty karttaan keltaisilla ja punaisilla pisteillä.

Aseta hiiri pisteen päälle nähdäksesi sääaseman nimen.

Klikkaa sitten nähdäksesi säähavainnot ja -ennusteet.

Kartan vaihtaminen: klikkaa mustalla rastilla varustettuja vihreitä pisteitä, niin voit zoomata sisään; viivalla varustettua vihreää pistettä, niin voit zoomata ulos tai vihreitä nuolia, niin pääset viereisille kartoille.


METAR-TAF: